Location: Melbourne
(37.8170°S, 144.9670°E)
Time: 03:12:50
(UTC+10:00)

ERBS - Visible Passes

Search period start: 04 August 2015 00:00
Search period end: 14 August 2015 00:00
Orbit: 450 x 461 km, 57.0° (Epoch: 03 August)

Date Brightness Start Highest point End Pass type
(mag) Time Alt. Az. Time Alt. Az. Time Alt. Az.
04 Aug 3.0 05:42:45 20° NNW 05:45:02 58° NE 05:48:36 10° SE visible
05 Aug 3.8 05:09:57 38° ENE 05:09:57 38° ENE 05:13:11 10° ESE visible
05 Aug 3.9 06:44:16 10° W 06:47:03 20° SW 06:49:49 10° SSE visible
06 Aug 5.5 04:36:48 15° ESE 04:36:48 15° ESE 04:37:38 10° ESE visible
06 Aug 3.6 06:10:35 23° WSW 06:11:38 27° SW 06:14:45 10° SSE visible
07 Aug 3.6 05:37:09 30° S 05:37:09 30° S 05:39:36 10° SSE visible
08 Aug 4.9 05:03:31 16° SSE 05:03:31 16° SSE 05:04:23 10° SSE visible
09 Aug 4.8 06:03:29 11° SSW 06:03:29 11° SSW 06:04:16 10° SSW visible
10 Aug 5.1 05:29:34 10° S 05:29:34 10° S 05:29:38 10° S visible
